Regional Weather Roundup
Issued by NWS

Home | Current Version | Previous Version | Graphics & Text | Print | Product List | Glossary On
Versions: 1 2 3 4 5 6 7 8 9 10 11 12 13 14 15 16 17 18 19 20 21 22 23 24 25 26 27 28 29 30 31 32 33 34 35 36 37 38 39 40 41 42 43 44 45 46 47 48 49 50
926
ASUS43 KLOT 120708
RWRIL

ILLINOIS REGIONAL WEATHER ROUNDUP
NATIONAL WEATHER SERVICE CHICAGO/ROMEOVILLE IL
100 AM CST FRI FEB 12 2016

NOTE: "FAIR" INDICATES FEW OR NO CLOUDS BELOW 12,000 FEET WITH NO
SIGNIFICANT WEATHER AND/OR OBSTRUCTIONS TO VISIBILITY.

* THESE STATIONS ARE NOT UNDER NWS QUALITY CONTROL. THEY ALSO MAY NOT
  REPORT WEATHER SUCH AS PRECIPITATION OR FOG.

ILZ001-002-007-009-015-016-024-120800-
NORTHWEST ILLINOIS

CITY           SKY/WX    TMP DP  RH WIND       PRES   REMARKS
MOLINE         CLOUDY    22  12  65 W7        30.23F WCI  13
STERLING*      CLOUDY    18  10  73 CALM      30.20F
SAVANNA*       PTCLDY    15   9  76 S3        30.22F
$$

ILZ003-004-008-010-011-017-018-120800-
NORTH CENTRAL ILLINOIS

CITY           SKY/WX    TMP DP  RH WIND       PRES   REMARKS
ROCKFORD       CLOUDY    19   6  57 SW5       30.22F WCI  12
FREEPORT*      PTCLDY    13   7  75 SW3       30.21F
ROCHELLE*      CLOUDY    19  12  75 SW6       30.21F WCI  11
DE KALB*       CLOUDY    19   8  62 SW5       30.20F WCI  12
$$

ILZ005-006-012>014-019>023-120800-
NORTHEAST ILLINOIS

CITY           SKY/WX    TMP DP  RH WIND       PRES   REMARKS
CHICAGO-OHARE  CLOUDY    19   7  59 W7        30.20F WCI  10
CHICAGO-MIDWAY CLOUDY    20   6  55 W5        30.22F WCI  13
AURORA         MOCLDY    18   9  68 SW3       30.22F
LANSING*       CLOUDY    14   9  80 SW3       30.23F
JOLIET*        CLOUDY    21  10  61 CALM      30.23F
WAUKEGAN       CLOUDY    18   6  59 SW6       30.18F WCI  10
DUPAGE AIRPORT CLOUDY    18   8  65 SW6       30.20F WCI  10
KANKAKEE*      CLOUDY    19  13  76 SW5       30.24F WCI  13
WHEELING       CLOUDY    19   6  57 W7        30.22F WCI  10
MORRIS*        CLOUDY    19  12  74 CALM      30.20F
ROMEOVILLE*    CLOUDY    17   8  66 SW3       30.22F
NORTHERLY ISL    N/A     21   7  54 W9          N/A  WCI  11
$$

LMZ740>746-120800-
SOUTHERN LAKE MICHIGAN

STATION/POSITION SKY/WX   TEMP    WIND        PRES    VSBY  WAVE
                          AIR SEA DIR/SP/G                  HT/PER
                          (F)     (DEG/KT/KT) (MB)    (MI)  (FT/S)
HARRISON CRIB              21     250/ 10/ 12   N/A
BURNHAM HARBOR             21     260/  9/  9   N/A
CALUMET HARBOR             19     220/  4/  6 1023.5F
BURNS HARBOR               19     220/  7/  9 1024.7F
MICHIGAN CITY              17     190/  9/ 10   N/A
$$

ILZ025>027-034>036-040-047-049-050-058-095>099-120800-
WEST-CENTRAL ILLINOIS

CITY           SKY/WX    TMP DP  RH WIND       PRES   REMARKS
QUINCY         LGT SNOW  20  16  84 SE3       30.24F FOG
GALESBURG*     LGT SNOW  21  17  86 NW5       30.23S WCI  14
MACOMB*        LGT SNOW  22  19  87 CALM      30.25F
JACKSONVILLE*  LGT SNOW  25  18  75 CALM      30.24F
PITTSFIELD*    FLURRIES  23  18  83 NE5       30.25F WCI  16
$$

ILZ028>032-037-038-041>044-048-051>054-059>061-120800-
CENTRAL ILLINOIS

CITY           SKY/WX    TMP DP  RH WIND       PRES   REMARKS
PONTIAC        CLOUDY    22  17  81 CALM      30.24F
BLOOMINGTON    CLOUDY    20  14  77 S6        30.23F WCI  12
DECATUR        CLOUDY    23  11  60 SE3       30.23F
PEORIA         CLOUDY    23  11  60 CALM      30.24F
LACON*         CLOUDY    22  11  61 W6        30.24S WCI  15
LINCOLN*       CLOUDY    25  16  68 CALM      30.24F
SPRINGFIELD    LGT SNOW  24  18  77 SW5       30.24F WCI  18
TAYLORVILLE    LGT SNOW  23  18  80 S5        30.24F WCI  17
$$

ILZ033-039-045-046-055>057-062-063-120800-
EAST-CENTRAL ILLINOIS

CITY           SKY/WX    TMP DP  RH WIND       PRES   REMARKS
CHAMPAIGN      CLOUDY    20  12  71 E3        30.23F
RANTOUL*       CLOUDY    22  14  70 CALM      30.23F
MATTOON        CLOUDY    21  10  62 CALM      30.23F
PARIS*         CLOUDY    21  15  77 CALM      30.25F
$$

ILZ079-100>102-120800-
SOUTHWEST ILLINOIS

CITY           SKY/WX    TMP DP  RH WIND       PRES   REMARKS
ALTON          CLOUDY    26  17  70 E3        30.23F
BELLEVILLE     MIX PCPN  27  16  63 SE2       30.22F
CAHOKIA*       FLURRIES  27  16  63 SE3       30.23F
SPARTA*        CLOUDY    27  18  67 CALM      30.24F
$$

ILZ064>066-069>071-074>076-080>082-084>086-088>090-092>094-120800-
SOUTH-CENTRAL ILLINOIS

CITY           SKY/WX    TMP DP  RH WIND       PRES   REMARKS
CARBONDALE     CLOUDY    29  15  56 CALM      30.24F
CAIRO*         CLOUDY    31  23  71 N5        30.25R WCI  26
EFFINGHAM*     CLOUDY    25  16  68 CALM      30.25F
MARION         CLOUDY    30  18  59 CALM      30.24F
MT. VERNON     CLOUDY    27  12  54 NE3       30.23F
CENTRALIA*     CLOUDY    27  18  68 E3        30.22F
SALEM*         CLOUDY    28  15  60 E3        30.23F
METROPOLIS*    CLOUDY    31  20  63 CALM      30.27R
$$

ILZ067-068-072-073-078-083-087-091-120800-
SOUTHEAST ILLINOIS

CITY           SKY/WX    TMP DP  RH WIND       PRES   REMARKS
LAWRENCEVILLE  CLOUDY    25  12  58 NE5       30.25F WCI  19
FLORA*         CLOUDY    27  15  59 E3        30.24F
FAIRFIELD*     CLOUDY    27  16  62 CALM      30.23F
HARRISBURG*    CLOUDY    29  17  61 NE3       30.24S
ROBINSON*      MOCLDY    22  14  70 NE3       30.26F
CARMI*         CLOUDY    28  18  65 NE5       30.24F WCI  23
$$

ABBREVIATIONS USED IN REMARKS
   TC - TEMPERATURE IN CELSIUS
  WCI - WIND CHILL INDEX
   HX - HEAT INDEX
  VSB - VISIBILITY
$$





USA.gov is the U.S. government's official web portal to all federal, state and local government web resources and services.